Time,TemperatureF,DewpointF,PressureIn,WindDirection,WindDirectionDegrees,WindSpeedMPH,WindSpeedGustMPH,Humidity,HourlyPrecipIn,Conditions,Clouds,dailyrainin,SoftwareType,DateUTC
2013-05-02 00:02:00,34.4,28.6,30.45,NE,40,5.0,5.0,79,0.00,,,0.80,Wunderground v.1.15,2013-05-02 05:02:00,
2013-05-02 00:07:00,34.4,28.6,30.45,NE,40,4.0,5.0,79,0.00,,,0.00,Wunderground v.1.15,2013-05-02 05:07:00,
2013-05-02 00:12:00,34.4,28.6,30.44,NNE,33,10.0,10.0,79,0.00,,,0.00,Wunderground v.1.15,2013-05-02 05:12:00,
2013-05-02 00:17:00,34.4,28.6,30.45,NNE,32,1.0,10.0,79,0.00,,,0.00,Wunderground v.1.15,2013-05-02 05:17:00,
2013-05-02 00:22:00,34.4,28.6,30.45,NNE,31,5.0,5.0,79,0.00,,,0.00,Wunderground v.1.15,2013-05-02 05:22:00,
2013-05-02 00:27:00,34.4,28.9,30.45,NNE,30,5.0,5.0,80,0.00,,,0.00,Wunderground v.1.15,2013-05-02 05:27:00,
2013-05-02 00:32:00,34.4,28.9,30.45,NNE,31,0.0,3.0,80,0.00,,,0.00,Wunderground v.1.15,2013-05-02 05:32:00,
2013-05-02 00:37:00,34.4,28.9,30.46,NNE,31,0.0,5.0,80,0.00,,,0.01,Wunderground v.1.15,2013-05-02 05:37:00,
2013-05-02 00:43:00,34.4,28.9,30.47,NNE,30,4.0,4.0,80,0.00,,,0.01,Wunderground v.1.15,2013-05-02 05:43:00,
2013-05-02 00:48:00,34.4,28.9,30.47,NNE,31,1.0,5.0,80,0.00,,,0.01,Wunderground v.1.15,2013-05-02 05:48:00,
2013-05-02 00:53:00,34.2,28.7,30.47,NNE,30,1.0,1.0,80,0.00,,,0.01,Wunderground v.1.15,2013-05-02 05:53:00,
2013-05-02 00:58:00,34.2,29.0,30.47,NNE,30,2.0,3.0,81,0.00,,,0.01,Wunderground v.1.15,2013-05-02 05:58:00,
2013-05-02 01:04:00,34.1,28.9,30.46,NNE,30,1.0,2.0,81,0.00,,,0.01,Wunderground v.1.15,2013-05-02 06:04:00,
2013-05-02 01:09:00,34.0,28.8,30.46,NNE,30,0.0,3.0,81,0.00,,,0.01,Wunderground v.1.15,2013-05-02 06:09:00,
2013-05-02 01:14:00,33.9,29.0,30.47,NNE,30,0.0,6.0,82,0.00,,,0.01,Wunderground v.1.15,2013-05-02 06:14:00,
2013-05-02 01:19:00,33.8,28.9,30.47,NNE,30,0.0,6.0,82,0.00,,,0.01,Wunderground v.1.15,2013-05-02 06:19:00,
2013-05-02 01:24:00,33.9,29.0,30.47,NNE,30,6.0,7.0,82,0.00,,,0.01,Wunderground v.1.15,2013-05-02 06:24:00,
2013-05-02 01:30:00,34.0,28.8,30.48,NNE,28,5.0,5.0,81,0.00,,,0.01,Wunderground v.1.15,2013-05-02 06:30:00,
2013-05-02 01:35:00,34.0,28.8,30.48,NNE,22,2.0,5.0,81,0.00,,,0.01,Wunderground v.1.15,2013-05-02 06:35:00,
2013-05-02 01:40:00,34.0,28.8,30.49,NNE,21,4.0,4.0,81,0.00,,,0.01,Wunderground v.1.15,2013-05-02 06:40:00,
2013-05-02 01:45:00,33.9,28.7,30.49,North,10,4.0,4.0,81,0.00,,,0.01,Wunderground v.1.15,2013-05-02 06:45:00,
2013-05-02 01:50:00,33.8,28.6,30.50,North,9,0.0,3.0,81,0.00,,,0.01,Wunderground v.1.15,2013-05-02 06:50:00,
2013-05-02 01:56:00,33.8,28.6,30.50,North,5,3.0,6.0,81,0.00,,,0.02,Wunderground v.1.15,2013-05-02 06:56:00,
2013-05-02 02:01:00,33.7,28.5,30.50,North,5,0.0,4.0,81,0.00,,,0.02,Wunderground v.1.15,2013-05-02 07:01:00,
2013-05-02 02:06:00,33.5,28.3,30.50,North,5,4.0,7.0,81,0.00,,,0.02,Wunderground v.1.15,2013-05-02 07:06:00,
2013-05-02 02:11:00,33.4,28.2,30.50,North,5,1.0,6.0,81,0.00,,,0.02,Wunderground v.1.15,2013-05-02 07:11:00,
2013-05-02 02:16:00,33.3,28.4,30.50,North,5,4.0,6.0,82,0.00,,,0.02,Wunderground v.1.15,2013-05-02 07:16:00,
2013-05-02 02:21:00,33.2,28.3,30.50,North,360,6.0,8.0,82,0.00,,,0.02,Wunderground v.1.15,2013-05-02 07:21:00,
2013-05-02 02:26:00,33.0,28.1,30.50,North,5,0.0,8.0,82,0.00,,,0.02,Wunderground v.1.15,2013-05-02 07:26:00,
2013-05-02 02:31:00,32.9,28.0,30.50,North,5,2.0,6.0,82,0.00,,,0.02,Wunderground v.1.15,2013-05-02 07:31:00,
2013-05-02 02:36:00,32.8,27.9,30.50,North,5,0.0,8.0,82,0.00,,,0.02,Wunderground v.1.15,2013-05-02 07:36:00,
2013-05-02 02:41:00,32.7,28.1,30.49,North,360,0.0,6.0,83,0.00,,,0.02,Wunderground v.1.15,2013-05-02 07:41:00,
2013-05-02 02:46:00,32.6,28.0,30.49,NNE,12,4.0,7.0,83,0.00,,,0.02,Wunderground v.1.15,2013-05-02 07:46:00,
2013-05-02 02:51:00,32.5,27.9,30.48,NNE,12,0.0,2.0,83,0.00,,,0.02,Wunderground v.1.15,2013-05-02 07:51:00,
2013-05-02 02:56:00,32.4,27.8,30.49,North,10,7.0,8.0,83,0.00,,,0.02,Wunderground v.1.15,2013-05-02 07:56:00,
2013-05-02 03:01:00,32.3,27.7,30.49,North,10,3.0,6.0,83,0.00,,,0.02,Wunderground v.1.15,2013-05-02 08:01:00,
2013-05-02 03:06:00,32.3,28.0,30.50,North,10,1.0,7.0,84,0.00,,,0.02,Wunderground v.1.15,2013-05-02 08:06:00,
2013-05-02 03:11:00,32.2,27.6,30.50,North,10,3.0,6.0,83,0.00,,,0.02,Wunderground v.1.15,2013-05-02 08:11:00,
2013-05-02 03:16:00,32.1,27.8,30.50,North,10,2.0,7.0,84,0.00,,,0.02,Wunderground v.1.15,2013-05-02 08:16:00,
2013-05-02 03:21:00,32.1,27.8,30.50,North,10,4.0,6.0,84,0.00,,,0.02,Wunderground v.1.15,2013-05-02 08:21:00,
2013-05-02 03:26:00,32.1,27.8,30.50,North,10,0.0,6.0,84,0.00,,,0.02,Wunderground v.1.15,2013-05-02 08:26:00,
2013-05-02 03:31:00,32.0,27.7,30.50,North,10,0.0,5.0,84,0.00,,,0.02,Wunderground v.1.15,2013-05-02 08:31:00,
2013-05-02 03:36:00,32.0,27.7,30.49,North,10,1.0,8.0,84,0.00,,,0.02,Wunderground v.1.15,2013-05-02 08:36:00,
2013-05-02 03:41:00,32.0,27.7,30.49,North,11,6.0,6.0,84,0.00,,,0.02,Wunderground v.1.15,2013-05-02 08:41:00,
2013-05-02 03:46:00,32.0,27.7,30.49,North,11,0.0,7.0,84,0.00,,,0.02,Wunderground v.1.15,2013-05-02 08:46:00,
2013-05-02 03:51:00,31.9,27.6,30.49,North,11,4.0,4.0,84,0.00,,,0.02,Wunderground v.1.15,2013-05-02 08:51:00,
2013-05-02 03:57:00,31.9,27.6,30.49,North,11,0.0,6.0,84,0.00,,,0.02,Wunderground v.1.15,2013-05-02 08:57:00,
2013-05-02 04:02:00,31.9,27.6,30.49,North,11,7.0,7.0,84,0.00,,,0.03,Wunderground v.1.15,2013-05-02 09:02:00,
2013-05-02 04:07:00,31.9,27.6,30.49,North,9,3.0,8.0,84,0.00,,,0.03,Wunderground v.1.15,2013-05-02 09:07:00,
2013-05-02 04:12:00,31.8,27.5,30.49,North,9,3.0,4.0,84,0.00,,,0.03,Wunderground v.1.15,2013-05-02 09:12:00,
2013-05-02 04:17:00,31.8,27.5,30.49,North,9,0.0,5.0,84,0.00,,,0.03,Wunderground v.1.15,2013-05-02 09:17:00,
2013-05-02 04:22:00,31.7,27.1,30.49,North,9,3.0,3.0,83,0.00,,,0.03,Wunderground v.1.15,2013-05-02 09:22:00,
2013-05-02 04:27:00,31.6,27.0,30.49,North,9,3.0,4.0,83,0.00,,,0.03,Wunderground v.1.15,2013-05-02 09:27:00,
2013-05-02 04:32:00,31.6,27.0,30.50,North,9,6.0,6.0,83,0.00,,,0.03,Wunderground v.1.15,2013-05-02 09:32:00,
2013-05-02 04:37:00,31.6,27.0,30.50,North,9,1.0,6.0,83,0.00,,,0.03,Wunderground v.1.15,2013-05-02 09:37:00,
2013-05-02 04:42:00,31.6,27.0,30.51,North,9,7.0,8.0,83,0.00,,,0.03,Wunderground v.1.15,2013-05-02 09:42:00,
2013-05-02 04:48:00,31.6,26.7,30.50,North,9,0.0,9.0,82,0.00,,,0.03,Wunderground v.1.15,2013-05-02 09:48:00,
2013-05-02 04:53:00,31.6,26.7,30.50,North,9,2.0,3.0,82,0.00,,,0.03,Wunderground v.1.15,2013-05-02 09:53:00,
2013-05-02 04:58:00,31.5,26.6,30.50,North,9,0.0,4.0,82,0.00,,,0.03,Wunderground v.1.15,2013-05-02 09:58:00,
2013-05-02 05:03:00,31.5,26.3,30.51,North,11,4.0,4.0,81,0.00,,,0.03,Wunderground v.1.15,2013-05-02 10:03:00,
2013-05-02 05:08:00,31.5,26.3,30.51,NNE,12,0.0,6.0,81,0.00,,,0.03,Wunderground v.1.15,2013-05-02 10:08:00,
2013-05-02 05:13:00,31.5,26.3,30.51,NNE,12,2.0,4.0,81,0.00,,,0.03,Wunderground v.1.15,2013-05-02 10:13:00,
2013-05-02 05:18:00,31.5,26.3,30.51,North,11,4.0,5.0,81,0.00,,,0.03,Wunderground v.1.15,2013-05-02 10:18:00,
2013-05-02 05:23:00,31.5,26.3,30.51,NNE,13,3.0,9.0,81,0.00,,,0.03,Wunderground v.1.15,2013-05-02 10:23:00,
2013-05-02 05:28:00,31.5,26.3,30.50,NNE,22,1.0,12.0,81,0.00,,,0.03,Wunderground v.1.15,2013-05-02 10:28:00,
2013-05-02 05:33:00,31.5,26.3,30.50,NNE,21,2.0,10.0,81,0.00,,,0.03,Wunderground v.1.15,2013-05-02 10:33:00,
2013-05-02 05:38:00,31.5,26.3,30.51,NNE,21,3.0,10.0,81,0.00,,,0.03,Wunderground v.1.15,2013-05-02 10:38:00,
2013-05-02 05:43:00,31.5,26.3,30.51,NNE,22,3.0,8.0,81,0.00,,,0.03,Wunderground v.1.15,2013-05-02 10:43:00,
2013-05-02 05:48:00,31.4,26.2,30.51,NNE,22,3.0,8.0,81,0.00,,,0.03,Wunderground v.1.15,2013-05-02 10:48:00,
2013-05-02 05:53:00,31.4,26.2,30.50,NNE,22,0.0,6.0,81,0.00,,,0.03,Wunderground v.1.15,2013-05-02 10:53:00,
2013-05-02 05:58:00,31.3,26.1,30.50,NNE,22,0.0,8.0,81,0.00,,,0.03,Wunderground v.1.15,2013-05-02 10:58:00,
2013-05-02 06:03:00,31.3,26.1,30.52,NNE,22,2.0,7.0,81,0.00,,,0.03,Wunderground v.1.15,2013-05-02 11:03:00,
2013-05-02 06:08:00,31.3,26.1,30.51,NNE,19,1.0,7.0,81,0.00,,,0.03,Wunderground v.1.15,2013-05-02 11:08:00,
2013-05-02 06:13:00,31.2,26.0,30.51,NNE,19,3.0,5.0,81,0.00,,,0.03,Wunderground v.1.15,2013-05-02 11:13:00,
2013-05-02 06:18:00,31.2,26.0,30.52,NNE,17,3.0,10.0,81,0.00,,,0.03,Wunderground v.1.15,2013-05-02 11:18:00,
2013-05-02 06:23:00,31.2,26.0,30.52,NNE,17,0.0,6.0,81,0.00,,,0.03,Wunderground v.1.15,2013-05-02 11:23:00,
2013-05-02 06:28:00,31.2,26.0,30.52,NNE,17,0.0,6.0,81,0.00,,,0.03,Wunderground v.1.15,2013-05-02 11:28:00,
2013-05-02 06:33:00,31.2,26.0,30.53,NNE,17,0.0,6.0,81,0.00,,,0.03,Wunderground v.1.15,2013-05-02 11:33:00,
2013-05-02 06:38:00,31.3,25.8,30.53,NNE,22,0.0,12.0,80,0.00,,,0.03,Wunderground v.1.15,2013-05-02 11:38:00,
2013-05-02 06:43:00,31.4,25.9,30.53,NNE,22,1.0,8.0,80,0.00,,,0.03,Wunderground v.1.15,2013-05-02 11:43:00,
2013-05-02 06:48:00,31.5,26.0,30.53,NE,48,3.0,8.0,80,0.00,,,0.03,Wunderground v.1.15,2013-05-02 11:48:00,
2013-05-02 06:53:00,31.5,25.7,30.54,NE,48,1.0,7.0,79,0.00,,,0.03,Wunderground v.1.15,2013-05-02 11:53:00,
2013-05-02 06:58:00,31.6,25.8,30.54,NE,45,0.0,7.0,79,0.00,,,0.03,Wunderground v.1.15,2013-05-02 11:58:00,
2013-05-02 07:04:00,31.6,25.8,30.54,NE,45,0.0,5.0,79,0.00,,,0.03,Wunderground v.1.15,2013-05-02 12:04:00,
2013-05-02 07:09:00,31.5,25.7,30.54,NE,45,1.0,6.0,79,0.00,,,0.03,Wunderground v.1.15,2013-05-02 12:09:00,
2013-05-02 07:14:00,31.6,25.8,30.55,NE,45,0.0,3.0,79,0.00,,,0.03,Wunderground v.1.15,2013-05-02 12:14:00,
2013-05-02 07:19:00,31.6,25.8,30.55,NE,44,3.0,5.0,79,0.00,,,0.03,Wunderground v.1.15,2013-05-02 12:19:00,
2013-05-02 07:24:00,31.7,25.6,30.55,NE,42,8.0,8.0,78,0.00,,,0.03,Wunderground v.1.15,2013-05-02 12:24:00,
2013-05-02 07:29:00,31.7,25.6,30.54,NE,42,1.0,8.0,78,0.00,,,0.03,Wunderground v.1.15,2013-05-02 12:29:00,
2013-05-02 07:34:00,31.7,25.6,30.54,NE,42,1.0,6.0,78,0.00,,,0.03,Wunderground v.1.15,2013-05-02 12:34:00,
2013-05-02 07:39:00,31.7,25.6,30.54,NE,42,0.0,6.0,78,0.00,,,0.03,Wunderground v.1.15,2013-05-02 12:39:00,
2013-05-02 07:44:00,31.7,25.6,30.54,NE,42,0.0,8.0,78,0.00,,,0.03,Wunderground v.1.15,2013-05-02 12:44:00,
2013-05-02 07:49:00,31.8,25.7,30.55,NE,42,2.0,8.0,78,0.00,,,0.03,Wunderground v.1.15,2013-05-02 12:49:00,
2013-05-02 07:54:00,31.8,25.7,30.56,NE,42,4.0,4.0,78,0.00,,,0.03,Wunderground v.1.15,2013-05-02 12:54:00,
2013-05-02 07:59:00,31.9,25.8,30.56,NE,42,0.0,4.0,78,0.00,,,0.03,Wunderground v.1.15,2013-05-02 12:59:00,
2013-05-02 08:04:00,31.9,25.8,30.56,NE,42,1.0,6.0,78,0.00,,,0.03,Wunderground v.1.15,2013-05-02 13:04:00,
2013-05-02 08:09:00,32.0,25.9,30.56,NE,42,2.0,6.0,78,0.00,,,0.03,Wunderground v.1.15,2013-05-02 13:09:00,
2013-05-02 08:14:00,32.0,27.4,30.56,NE,42,0.0,5.0,83,0.00,,,0.03,Wunderground v.1.15,2013-05-02 13:14:00,
2013-05-02 08:19:00,32.1,26.0,30.56,NE,42,1.0,7.0,78,0.00,,,0.03,Wunderground v.1.15,2013-05-02 13:19:00,
2013-05-02 08:24:00,32.2,25.8,30.56,NE,42,2.0,7.0,77,0.00,,,0.03,Wunderground v.1.15,2013-05-02 13:24:00,
2013-05-02 08:29:00,32.2,25.8,30.57,NE,42,0.0,7.0,77,0.00,,,0.03,Wunderground v.1.15,2013-05-02 13:29:00,
2013-05-02 08:34:00,32.2,25.8,30.57,NE,42,0.0,3.0,77,0.00,,,0.03,Wunderground v.1.15,2013-05-02 13:34:00,
2013-05-02 08:39:00,32.3,25.9,30.57,NE,42,3.0,5.0,77,0.00,,,0.03,Wunderground v.1.15,2013-05-02 13:39:00,
2013-05-02 08:44:00,32.4,26.0,30.56,NE,42,3.0,7.0,77,0.00,,,0.03,Wunderground v.1.15,2013-05-02 13:44:00,
2013-05-02 08:49:00,32.5,26.1,30.56,NE,41,4.0,7.0,77,0.00,,,0.03,Wunderground v.1.15,2013-05-02 13:49:00,
2013-05-02 08:54:00,32.6,25.9,30.56,NE,36,2.0,7.0,76,0.00,,,0.03,Wunderground v.1.15,2013-05-02 13:54:00,
2013-05-02 09:00:00,32.8,26.1,30.56,NE,35,0.0,9.0,76,0.00,,,0.03,Wunderground v.1.15,2013-05-02 14:00:00,
2013-05-02 09:05:00,33.3,26.2,30.57,NNE,28,2.0,8.0,75,0.00,,,0.03,Wunderground v.1.15,2013-05-02 14:05:00,
2013-05-02 09:10:00,33.7,26.6,30.57,NNE,22,5.0,8.0,75,0.00,,,0.04,Wunderground v.1.15,2013-05-02 14:10:00,
2013-05-02 09:15:00,33.9,26.8,30.57,NNE,22,5.0,6.0,75,0.00,,,0.04,Wunderground v.1.15,2013-05-02 14:15:00,
2013-05-02 09:20:00,34.1,26.7,30.57,NNE,22,3.0,7.0,74,0.00,,,0.04,Wunderground v.1.15,2013-05-02 14:20:00,
2013-05-02 09:25:00,34.1,26.3,30.57,NNE,17,5.0,9.0,73,0.00,,,0.04,Wunderground v.1.15,2013-05-02 14:25:00,
2013-05-02 09:30:00,33.9,26.2,30.57,North,360,8.0,10.0,73,0.00,,,0.04,Wunderground v.1.15,2013-05-02 14:30:00,
2013-05-02 09:35:00,33.9,25.8,30.57,North,360,5.0,10.0,72,0.00,,,0.04,Wunderground v.1.15,2013-05-02 14:35:00,
2013-05-02 09:41:00,34.0,26.3,30.56,North,360,4.0,6.0,73,0.00,,,0.04,Wunderground v.1.15,2013-05-02 14:41:00,
2013-05-02 09:46:00,34.0,26.3,30.56,North,355,6.0,11.0,73,0.00,,,0.04,Wunderground v.1.15,2013-05-02 14:46:00,
2013-05-02 09:51:00,33.9,26.2,30.56,NNW,331,4.0,17.0,73,0.00,,,0.04,Wunderground v.1.15,2013-05-02 14:51:00,
2013-05-02 09:56:00,34.1,26.3,30.56,NNW,340,5.0,17.0,73,0.00,,,0.04,Wunderground v.1.15,2013-05-02 14:56:00,
2013-05-02 10:01:00,34.1,26.7,30.56,NNW,344,0.0,5.0,74,0.00,,,0.04,Wunderground v.1.15,2013-05-02 15:01:00,
2013-05-02 10:06:00,34.2,26.8,30.57,North,350,8.0,9.0,74,0.00,,,0.04,Wunderground v.1.15,2013-05-02 15:06:00,
2013-05-02 10:11:00,34.3,26.9,30.56,North,349,5.0,7.0,74,0.00,,,0.05,Wunderground v.1.15,2013-05-02 15:11:00,
2013-05-02 10:16:00,34.4,27.0,30.56,North,355,5.0,12.0,74,0.00,,,0.05,Wunderground v.1.15,2013-05-02 15:16:00,
2013-05-02 10:21:00,34.4,27.0,30.56,North,350,7.0,10.0,74,0.00,,,0.05,Wunderground v.1.15,2013-05-02 15:21:00,
2013-05-02 10:26:00,34.4,27.0,30.56,North,355,8.0,11.0,74,0.00,,,0.05,Wunderground v.1.15,2013-05-02 15:26:00,
2013-05-02 10:31:00,34.4,27.0,30.56,North,355,5.0,9.0,74,0.00,,,0.05,Wunderground v.1.15,2013-05-02 15:31:00,
2013-05-02 10:36:00,34.5,27.1,30.56,North,355,3.0,11.0,74,0.00,,,0.05,Wunderground v.1.15,2013-05-02 15:36:00,
2013-05-02 10:41:00,34.6,26.8,30.56,NNW,342,6.0,10.0,73,0.00,,,0.05,Wunderground v.1.15,2013-05-02 15:41:00,
2013-05-02 10:46:00,34.8,27.0,30.56,NNW,344,6.0,11.0,73,0.00,,,0.05,Wunderground v.1.15,2013-05-02 15:46:00,
2013-05-02 10:51:00,34.9,27.1,30.56,NNW,345,7.0,10.0,73,0.00,,,0.05,Wunderground v.1.15,2013-05-02 15:51:00,
2013-05-02 10:56:00,35.0,27.5,30.57,NNW,346,10.0,11.0,74,0.00,,,0.05,Wunderground v.1.15,2013-05-02 15:56:00,
2013-05-02 11:01:00,35.3,27.8,30.56,NNW,348,5.0,7.0,74,0.00,,,0.06,Wunderground v.1.15,2013-05-02 16:01:00,
2013-05-02 11:06:00,35.5,27.7,30.56,NNW,337,9.0,13.0,73,0.00,,,0.06,Wunderground v.1.15,2013-05-02 16:06:00,
2013-05-02 11:11:00,35.5,27.7,30.57,NNW,338,9.0,9.0,73,0.00,,,0.06,Wunderground v.1.15,2013-05-02 16:11:00,
2013-05-02 11:16:00,35.5,27.4,30.56,NNW,344,7.0,10.0,72,0.00,,,0.06,Wunderground v.1.15,2013-05-02 16:16:00,
2013-05-02 11:21:00,35.8,27.7,30.56,North,350,5.0,9.0,72,0.00,,,0.06,Wunderground v.1.15,2013-05-02 16:21:00,
2013-05-02 11:27:00,36.0,28.2,30.56,NNW,345,6.0,12.0,73,0.00,,,0.06,Wunderground v.1.15,2013-05-02 16:27:00,
2013-05-02 11:32:00,36.2,27.7,30.56,North,349,3.0,12.0,71,0.00,,,0.06,Wunderground v.1.15,2013-05-02 16:32:00,
2013-05-02 11:37:00,36.7,28.5,30.56,NNW,346,4.0,12.0,72,0.00,,,0.06,Wunderground v.1.15,2013-05-02 16:37:00,
2013-05-02 11:42:00,37.1,28.6,30.55,North,355,3.0,7.0,71,0.00,,,0.07,Wunderground v.1.15,2013-05-02 16:42:00,
2013-05-02 11:47:00,37.4,28.9,30.55,NNW,339,2.0,14.0,71,0.00,,,0.07,Wunderground v.1.15,2013-05-02 16:47:00,
2013-05-02 11:52:00,37.8,28.9,30.55,North,355,4.0,8.0,70,0.00,,,0.07,Wunderground v.1.15,2013-05-02 16:52:00,
2013-05-02 11:57:00,38.1,29.5,30.56,North,355,3.0,12.0,71,0.00,,,0.07,Wunderground v.1.15,2013-05-02 16:57:00,
2013-05-02 12:02:00,38.3,28.7,30.55,NNW,344,4.0,10.0,68,0.00,,,0.08,Wunderground v.1.15,2013-05-02 17:02:00,
2013-05-02 12:07:00,38.1,27.7,30.55,NW,323,8.0,14.0,66,0.00,,,0.08,Wunderground v.1.15,2013-05-02 17:07:00,
2013-05-02 12:12:00,37.9,28.3,30.55,NNW,331,7.0,12.0,68,0.08,,,0.09,Wunderground v.1.15,2013-05-02 17:12:00,
2013-05-02 12:17:00,38.2,28.2,30.55,North,355,6.0,12.0,67,0.08,,,0.10,Wunderground v.1.15,2013-05-02 17:17:00,
2013-05-02 12:22:00,38.5,28.9,30.55,NNW,344,3.0,8.0,68,0.12,,,0.11,Wunderground v.1.15,2013-05-02 17:22:00,
2013-05-02 12:27:00,38.8,29.1,30.55,North,355,6.0,13.0,68,0.09,,,0.11,Wunderground v.1.15,2013-05-02 17:27:00,
2013-05-02 12:32:00,38.9,28.5,30.54,NNW,342,7.0,12.0,66,0.07,,,0.12,Wunderground v.1.15,2013-05-02 17:32:00,
2013-05-02 12:37:00,39.2,29.2,30.54,North,355,5.0,12.0,67,0.12,,,0.13,Wunderground v.1.15,2013-05-02 17:37:00,
2013-05-02 12:42:00,39.3,29.3,30.54,NNW,342,5.0,12.0,67,0.10,,,0.14,Wunderground v.1.15,2013-05-02 17:42:00,
2013-05-02 12:47:00,39.8,30.1,30.54,NNW,345,2.0,12.0,68,0.11,,,0.15,Wunderground v.1.15,2013-05-02 17:47:00,
2013-05-02 12:52:00,40.2,30.1,30.54,North,360,4.0,13.0,67,0.09,,,0.15,Wunderground v.1.15,2013-05-02 17:52:00,
2013-05-02 12:57:00,40.0,29.2,30.53,North,355,8.0,14.0,65,0.09,,,0.16,Wunderground v.1.15,2013-05-02 17:57:00,
2013-05-02 13:02:00,40.5,29.7,30.53,North,355,3.0,12.0,65,0.11,,,0.17,Wunderground v.1.15,2013-05-02 18:02:00,
2013-05-02 13:07:00,40.9,30.0,30.53,North,360,9.0,13.0,65,0.09,,,0.18,Wunderground v.1.15,2013-05-02 18:07:00,
2013-05-02 13:12:00,41.0,30.5,30.53,NNW,347,6.0,10.0,66,0.08,,,0.18,Wunderground v.1.15,2013-05-02 18:12:00,
2013-05-02 13:17:00,41.1,29.5,30.53,NNW,341,6.0,15.0,63,0.07,,,0.19,Wunderground v.1.15,2013-05-02 18:17:00,
2013-05-02 13:22:00,40.8,29.6,30.53,North,360,6.0,12.0,64,0.10,,,0.20,Wunderground v.1.15,2013-05-02 18:22:00,
2013-05-02 13:27:00,41.0,29.4,30.53,NNW,328,6.0,18.0,63,0.08,,,0.20,Wunderground v.1.15,2013-05-02 18:27:00,
2013-05-02 13:32:00,41.3,30.0,30.52,North,355,8.0,12.0,64,0.06,,,0.21,Wunderground v.1.15,2013-05-02 18:32:00,
2013-05-02 13:37:00,41.0,28.6,30.53,North,360,7.0,15.0,61,0.06,,,0.21,Wunderground v.1.15,2013-05-02 18:37:00,
2013-05-02 13:42:00,41.4,30.5,30.52,North,355,5.0,10.0,65,0.06,,,0.22,Wunderground v.1.15,2013-05-02 18:42:00,
2013-05-02 13:47:00,41.8,30.1,30.52,NNW,344,6.0,13.0,63,0.06,,,0.22,Wunderground v.1.15,2013-05-02 18:47:00,
2013-05-02 13:52:00,42.1,31.6,30.52,North,355,1.0,10.0,66,0.05,,,0.22,Wunderground v.1.15,2013-05-02 18:52:00,
2013-05-02 13:57:00,42.2,30.1,30.52,NNW,329,14.0,14.0,62,0.04,,,0.23,Wunderground v.1.15,2013-05-02 18:57:00,
2013-05-02 14:02:00,42.0,30.3,30.51,North,355,7.0,11.0,63,0.04,,,0.23,Wunderground v.1.15,2013-05-02 19:02:00,
2013-05-02 14:07:00,42.8,32.2,30.52,NNW,336,8.0,11.0,66,0.04,,,0.23,Wunderground v.1.15,2013-05-02 19:07:00,
2013-05-02 14:12:00,43.1,31.4,30.51,North,349,7.0,12.0,63,0.00,,,0.23,Wunderground v.1.15,2013-05-02 19:12:00,
2013-05-02 14:17:00,43.6,32.2,30.51,North,349,5.0,12.0,64,0.00,,,0.23,Wunderground v.1.15,2013-05-02 19:17:00,
2013-05-02 14:22:00,43.6,31.0,30.51,North,5,7.0,11.0,61,0.00,,,0.23,Wunderground v.1.15,2013-05-02 19:22:00,
2013-05-02 14:27:00,43.3,30.3,30.51,North,355,2.0,13.0,60,0.00,,,0.23,Wunderground v.1.15,2013-05-02 19:27:00,
2013-05-02 14:32:00,43.5,30.9,30.51,NNE,13,2.0,14.0,61,0.00,,,0.23,Wunderground v.1.15,2013-05-02 19:32:00,
2013-05-02 14:38:00,43.7,30.7,30.50,NW,304,14.0,16.0,60,0.00,,,0.23,Wunderground v.1.15,2013-05-02 19:38:00,
2013-05-02 14:43:00,43.9,30.5,30.50,North,355,6.0,13.0,59,0.00,,,0.23,Wunderground v.1.15,2013-05-02 19:43:00,
2013-05-02 14:48:00,44.1,30.7,30.50,North,355,0.0,13.0,59,0.00,,,0.23,Wunderground v.1.15,2013-05-02 19:48:00,
2013-05-02 14:53:00,44.3,30.0,30.50,North,349,8.0,20.0,57,0.00,,,0.23,Wunderground v.1.15,2013-05-02 19:53:00,
2013-05-02 14:58:00,44.1,30.3,30.50,North,360,5.0,20.0,58,0.00,,,0.23,Wunderground v.1.15,2013-05-02 19:58:00,
2013-05-02 15:03:00,44.2,30.8,30.50,NNW,342,6.0,9.0,59,0.00,,,0.23,Wunderground v.1.15,2013-05-02 20:03:00,
2013-05-02 15:08:00,44.7,30.8,30.49,North,355,8.0,13.0,58,0.00,,,0.23,Wunderground v.1.15,2013-05-02 20:08:00,
2013-05-02 15:13:00,45.0,30.2,30.49,North,355,6.0,12.0,56,0.00,,,0.23,Wunderground v.1.15,2013-05-02 20:13:00,
2013-05-02 15:18:00,45.1,31.2,30.49,North,5,7.0,12.0,58,0.00,,,0.23,Wunderground v.1.15,2013-05-02 20:18:00,
2013-05-02 15:23:00,45.5,31.6,30.48,North,351,5.0,11.0,58,0.00,,,0.23,Wunderground v.1.15,2013-05-02 20:23:00,
2013-05-02 15:28:00,45.0,29.3,30.48,NNW,345,5.0,15.0,54,0.00,,,0.23,Wunderground v.1.15,2013-05-02 20:28:00,
2013-05-02 15:33:00,45.4,30.2,30.48,North,355,6.0,10.0,55,0.00,,,0.23,Wunderground v.1.15,2013-05-02 20:33:00,
2013-05-02 15:38:00,45.0,28.9,30.48,NNW,342,9.0,16.0,53,0.00,,,0.23,Wunderground v.1.15,2013-05-02 20:38:00,
2013-05-02 15:43:00,45.1,30.3,30.47,NNE,20,8.0,11.0,56,0.00,,,0.23,Wunderground v.1.15,2013-05-02 20:43:00,
2013-05-02 15:48:00,45.6,32.5,30.47,NNW,344,11.0,13.0,60,0.00,,,0.23,Wunderground v.1.15,2013-05-02 20:48:00,
2013-05-02 15:53:00,45.6,31.2,30.47,NW,319,6.0,14.0,57,0.00,,,0.23,Wunderground v.1.15,2013-05-02 20:53:00,
2013-05-02 15:58:00,45.9,31.5,30.47,NNW,328,10.0,14.0,57,0.00,,,0.23,Wunderground v.1.15,2013-05-02 20:58:00,
2013-05-02 16:03:00,45.9,31.5,30.46,North,355,6.0,13.0,57,0.00,,,0.23,Wunderground v.1.15,2013-05-02 21:03:00,
2013-05-02 16:08:00,45.9,30.6,30.46,NNW,340,11.0,13.0,55,0.00,,,0.23,Wunderground v.1.15,2013-05-02 21:08:00,
2013-05-02 16:13:00,45.4,29.3,30.46,NNW,328,9.0,15.0,53,0.00,,,0.23,Wunderground v.1.15,2013-05-02 21:13:00,
2013-05-02 16:18:00,45.7,30.4,30.46,NNE,14,14.0,15.0,55,0.00,,,0.23,Wunderground v.1.15,2013-05-02 21:18:00,
2013-05-02 16:23:00,45.9,30.6,30.45,NNW,347,3.0,13.0,55,0.00,,,0.23,Wunderground v.1.15,2013-05-02 21:23:00,
2013-05-02 16:28:00,46.1,31.3,30.45,NNW,340,7.0,13.0,56,0.00,,,0.23,Wunderground v.1.15,2013-05-02 21:28:00,
2013-05-02 16:33:00,46.1,30.4,30.45,North,355,4.0,12.0,54,0.00,,,0.23,Wunderground v.1.15,2013-05-02 21:33:00,
2013-05-02 16:38:00,46.2,30.9,30.45,NNW,343,5.0,13.0,55,0.00,,,0.23,Wunderground v.1.15,2013-05-02 21:38:00,
2013-05-02 16:43:00,46.2,29.5,30.45,North,355,6.0,10.0,52,0.00,,,0.23,Wunderground v.1.15,2013-05-02 21:43:00,
2013-05-02 16:48:00,46.2,30.9,30.45,North,360,6.0,17.0,55,0.00,,,0.23,Wunderground v.1.15,2013-05-02 21:48:00,
2013-05-02 16:53:00,46.1,29.9,30.45,North,355,5.0,14.0,53,0.00,,,0.23,Wunderground v.1.15,2013-05-02 21:53:00,
2013-05-02 16:58:00,46.0,30.3,30.45,North,360,4.0,14.0,54,0.00,,,0.23,Wunderground v.1.15,2013-05-02 21:58:00,
2013-05-02 17:03:00,46.3,31.0,30.45,North,355,9.0,9.0,55,0.00,,,0.23,Wunderground v.1.15,2013-05-02 22:03:00,
2013-05-02 17:08:00,46.5,30.7,30.44,NNW,342,6.0,12.0,54,0.00,,,0.23,Wunderground v.1.15,2013-05-02 22:08:00,
2013-05-02 17:13:00,46.2,29.5,30.44,North,355,6.0,19.0,52,0.00,,,0.23,Wunderground v.1.15,2013-05-02 22:13:00,
2013-05-02 17:19:00,46.3,29.6,30.44,North,350,4.0,19.0,52,0.00,,,0.23,Wunderground v.1.15,2013-05-02 22:19:00,
2013-05-02 17:24:00,46.5,29.8,30.44,North,355,3.0,9.0,52,0.00,,,0.23,Wunderground v.1.15,2013-05-02 22:24:00,
2013-05-02 17:29:00,46.0,28.9,30.44,North,355,6.0,13.0,51,0.00,,,0.23,Wunderground v.1.15,2013-05-02 22:29:00,
2013-05-02 17:34:00,45.4,28.8,30.44,NNW,339,5.0,13.0,52,0.00,,,0.23,Wunderground v.1.15,2013-05-02 22:34:00,
2013-05-02 17:39:00,45.0,28.9,30.44,North,5,4.0,13.0,53,0.00,,,0.23,Wunderground v.1.15,2013-05-02 22:39:00,
2013-05-02 17:44:00,45.1,29.0,30.44,NNW,342,9.0,13.0,53,0.00,,,0.23,Wunderground v.1.15,2013-05-02 22:44:00,
2013-05-02 17:49:00,45.2,29.1,30.44,NNW,340,8.0,13.0,53,0.00,,,0.23,Wunderground v.1.15,2013-05-02 22:49:00,
2013-05-02 17:54:00,45.6,29.9,30.44,North,355,7.0,9.0,54,0.00,,,0.23,Wunderground v.1.15,2013-05-02 22:54:00,
2013-05-02 17:59:00,45.4,28.8,30.44,North,355,1.0,9.0,52,0.00,,,0.23,Wunderground v.1.15,2013-05-02 22:59:00,
2013-05-02 18:04:00,45.5,29.3,30.44,North,350,5.0,18.0,53,0.00,,,0.23,Wunderground v.1.15,2013-05-02 23:04:00,
2013-05-02 18:09:00,45.6,30.3,30.43,North,5,6.0,18.0,55,0.00,,,0.23,Wunderground v.1.15,2013-05-02 23:09:00,
2013-05-02 18:14:00,45.4,28.8,30.43,North,5,4.0,10.0,52,0.00,,,0.23,Wunderground v.1.15,2013-05-02 23:14:00,
2013-05-02 18:19:00,45.4,28.8,30.43,NNW,342,9.0,11.0,52,0.00,,,0.23,Wunderground v.1.15,2013-05-02 23:19:00,
2013-05-02 18:24:00,45.0,28.4,30.43,NNW,343,7.0,14.0,52,0.00,,,0.23,Wunderground v.1.15,2013-05-02 23:24:00,
2013-05-02 18:29:00,44.6,28.0,30.43,North,350,2.0,14.0,52,0.00,,,0.23,Wunderground v.1.15,2013-05-02 23:29:00,
2013-05-02 18:35:00,44.6,28.0,30.43,North,360,2.0,9.0,52,0.00,,,0.23,Wunderground v.1.15,2013-05-02 23:35:00,
2013-05-02 18:40:00,44.5,28.0,30.43,North,360,8.0,10.0,52,0.00,,,0.23,Wunderground v.1.15,2013-05-02 23:40:00,
2013-05-02 18:45:00,44.2,28.1,30.43,NNE,20,4.0,10.0,53,0.00,,,0.23,Wunderground v.1.15,2013-05-02 23:45:00,
2013-05-02 18:50:00,44.0,28.0,30.42,North,355,2.0,10.0,53,0.00,,,0.23,Wunderground v.1.15,2013-05-02 23:50:00,
2013-05-02 18:55:00,43.9,27.9,30.43,North,355,4.0,12.0,53,0.00,,,0.23,Wunderground v.1.15,2013-05-02 23:55:00,
2013-05-02 19:00:00,43.8,28.2,30.43,North,360,6.0,6.0,54,0.00,,,0.23,Wunderground v.1.15,2013-05-03 00:00:00,
2013-05-02 19:05:00,43.6,27.6,30.42,NNW,345,6.0,8.0,53,0.00,,,0.23,Wunderground v.1.15,2013-05-03 00:05:00,
2013-05-02 19:10:00,43.6,28.5,30.42,NNE,13,2.0,4.0,55,0.00,,,0.23,Wunderground v.1.15,2013-05-03 00:10:00,
2013-05-02 19:15:00,43.3,27.8,30.42,North,350,3.0,11.0,54,0.00,,,0.23,Wunderground v.1.15,2013-05-03 00:15:00,
2013-05-02 19:20:00,43.0,27.9,30.43,North,355,0.0,4.0,55,0.00,,,0.23,Wunderground v.1.15,2013-05-03 00:20:00,
2013-05-02 19:25:00,42.7,28.5,30.42,NNW,338,8.0,8.0,57,0.00,,,0.23,Wunderground v.1.15,2013-05-03 00:25:00,
2013-05-02 19:30:00,42.4,27.8,30.42,North,355,3.0,4.0,56,0.00,,,0.23,Wunderground v.1.15,2013-05-03 00:30:00,
2013-05-02 19:35:00,42.3,28.1,30.42,North,360,1.0,7.0,57,0.00,,,0.23,Wunderground v.1.15,2013-05-03 00:35:00,
2013-05-02 19:40:00,41.9,28.2,30.42,North,355,4.0,7.0,58,0.00,,,0.23,Wunderground v.1.15,2013-05-03 00:40:00,
2013-05-02 19:45:00,41.7,27.6,30.42,NNW,342,7.0,7.0,57,0.00,,,0.23,Wunderground v.1.15,2013-05-03 00:45:00,
2013-05-02 19:51:00,41.6,27.9,30.42,NNW,345,3.0,6.0,58,0.00,,,0.23,Wunderground v.1.15,2013-05-03 00:51:00,
2013-05-02 19:56:00,41.5,27.8,30.42,NNW,346,3.0,9.0,58,0.00,,,0.23,Wunderground v.1.15,2013-05-03 00:56:00,
2013-05-02 20:01:00,41.3,28.0,30.42,NNW,342,2.0,7.0,59,0.00,,,0.23,Wunderground v.1.15,2013-05-03 01:01:00,
2013-05-02 20:06:00,41.0,29.7,30.43,NNW,344,3.0,7.0,64,0.00,,,0.23,Wunderground v.1.15,2013-05-03 01:06:00,
2013-05-02 20:11:00,40.6,28.2,30.43,NNW,346,5.0,5.0,61,0.00,,,0.23,Wunderground v.1.15,2013-05-03 01:11:00,
2013-05-02 20:16:00,40.2,28.6,30.43,NNW,346,5.0,6.0,63,0.00,,,0.23,Wunderground v.1.15,2013-05-03 01:16:00,
2013-05-02 20:21:00,39.8,27.8,30.43,North,355,0.0,4.0,62,0.00,,,0.23,Wunderground v.1.15,2013-05-03 01:21:00,
2013-05-02 20:26:00,39.5,27.9,30.43,North,355,2.0,6.0,63,0.00,,,0.23,Wunderground v.1.15,2013-05-03 01:26:00,
2013-05-02 20:32:00,39.2,27.7,30.42,NNW,340,1.0,6.0,63,0.00,,,0.23,Wunderground v.1.15,2013-05-03 01:32:00,
2013-05-02 20:37:00,39.1,27.6,30.42,North,355,2.0,6.0,63,0.00,,,0.23,Wunderground v.1.15,2013-05-03 01:37:00,
2013-05-02 20:42:00,38.9,27.4,30.42,NNW,342,1.0,9.0,63,0.00,,,0.23,Wunderground v.1.15,2013-05-03 01:42:00,
2013-05-02 20:47:00,38.7,27.2,30.42,NNW,342,2.0,9.0,63,0.00,,,0.23,Wunderground v.1.15,2013-05-03 01:47:00,
2013-05-02 20:52:00,38.6,27.5,30.42,NNW,344,2.0,5.0,64,0.00,,,0.23,Wunderground v.1.15,2013-05-03 01:52:00,
2013-05-02 20:57:00,38.3,27.2,30.43,NNW,344,7.0,7.0,64,0.00,,,0.23,Wunderground v.1.15,2013-05-03 01:57:00,
2013-05-02 21:02:00,38.1,27.0,30.43,NNW,328,7.0,7.0,64,0.00,,,0.23,Wunderground v.1.15,2013-05-03 02:02:00,
2013-05-02 21:07:00,37.9,26.8,30.43,NNW,345,3.0,7.0,64,0.00,,,0.23,Wunderground v.1.15,2013-05-03 02:07:00,
2013-05-02 21:12:00,37.7,26.6,30.43,NNW,345,4.0,7.0,64,0.00,,,0.23,Wunderground v.1.15,2013-05-03 02:12:00,
2013-05-02 21:17:00,37.7,26.6,30.44,North,350,4.0,8.0,64,0.00,,,0.23,Wunderground v.1.15,2013-05-03 02:17:00,
2013-05-02 21:22:00,37.5,26.0,30.43,NNW,334,4.0,6.0,63,0.00,,,0.23,Wunderground v.1.15,2013-05-03 02:22:00,
2013-05-02 21:27:00,37.5,26.0,30.43,North,349,4.0,8.0,63,0.00,,,0.23,Wunderground v.1.15,2013-05-03 02:27:00,
2013-05-02 21:32:00,37.4,26.3,30.43,NNW,340,4.0,8.0,64,0.00,,,0.23,Wunderground v.1.15,2013-05-03 02:32:00,
2013-05-02 21:37:00,37.2,26.1,30.43,NNW,338,4.0,10.0,64,0.00,,,0.23,Wunderground v.1.15,2013-05-03 02:37:00,
2013-05-02 21:42:00,37.0,25.9,30.42,NNW,344,7.0,7.0,64,0.00,,,0.23,Wunderground v.1.15,2013-05-03 02:42:00,
2013-05-02 21:47:00,36.9,25.9,30.43,NW,322,6.0,9.0,64,0.00,,,0.23,Wunderground v.1.15,2013-05-03 02:47:00,
2013-05-02 21:52:00,36.7,25.7,30.43,NNW,336,4.0,8.0,64,0.00,,,0.23,Wunderground v.1.15,2013-05-03 02:52:00,
2013-05-02 21:57:00,36.7,26.0,30.43,NNW,331,2.0,8.0,65,0.00,,,0.23,Wunderground v.1.15,2013-05-03 02:57:00,
2013-05-02 22:02:00,36.6,25.9,30.43,NNW,341,6.0,7.0,65,0.00,,,0.23,Wunderground v.1.15,2013-05-03 03:02:00,
2013-05-02 22:07:00,36.4,25.7,30.43,NNW,338,4.0,7.0,65,0.00,,,0.23,Wunderground v.1.15,2013-05-03 03:07:00,
2013-05-02 22:12:00,36.4,26.1,30.43,NNW,344,5.0,8.0,66,0.00,,,0.23,Wunderground v.1.15,2013-05-03 03:12:00,
2013-05-02 22:17:00,36.3,26.0,30.43,NNW,340,1.0,8.0,66,0.00,,,0.23,Wunderground v.1.15,2013-05-03 03:17:00,
2013-05-02 22:22:00,36.1,25.8,30.43,NNW,337,3.0,6.0,66,0.00,,,0.23,Wunderground v.1.15,2013-05-03 03:22:00,
2013-05-02 22:27:00,36.0,26.1,30.42,NNW,344,3.0,8.0,67,0.00,,,0.23,Wunderground v.1.15,2013-05-03 03:27:00,
2013-05-02 22:32:00,35.8,25.9,30.42,NNW,328,3.0,6.0,67,0.00,,,0.23,Wunderground v.1.15,2013-05-03 03:32:00,
2013-05-02 22:37:00,35.7,25.8,30.42,NNW,340,3.0,7.0,67,0.00,,,0.23,Wunderground v.1.15,2013-05-03 03:37:00,
2013-05-02 22:42:00,35.5,25.6,30.42,NNW,336,3.0,9.0,67,0.00,,,0.23,Wunderground v.1.15,2013-05-03 03:42:00,
2013-05-02 22:47:00,35.4,25.9,30.42,NNW,346,4.0,9.0,68,0.00,,,0.23,Wunderground v.1.15,2013-05-03 03:47:00,
2013-05-02 22:52:00,35.3,25.8,30.42,NNW,348,2.0,9.0,68,0.00,,,0.23,Wunderground v.1.15,2013-05-03 03:52:00,
2013-05-02 22:57:00,35.2,25.7,30.42,NW,323,6.0,11.0,68,0.00,,,0.23,Wunderground v.1.15,2013-05-03 03:57:00,
2013-05-02 23:01:00,35.1,25.6,30.41,NW,326,6.0,8.0,68,0.00,,,0.23,Wunderground v.1.15,2013-05-03 04:01:00,
2013-05-02 23:06:00,35.0,25.5,30.42,North,349,3.0,8.0,68,0.00,,,0.23,Wunderground v.1.15,2013-05-03 04:06:00,
2013-05-02 23:11:00,35.0,25.9,30.42,NNW,342,3.0,5.0,69,0.00,,,0.23,Wunderground v.1.15,2013-05-03 04:11:00,
2013-05-02 23:16:00,34.7,25.6,30.42,NNW,346,5.0,11.0,69,0.00,,,0.23,Wunderground v.1.15,2013-05-03 04:16:00,
2013-05-02 23:21:00,34.5,25.7,30.41,NNW,346,2.0,6.0,70,0.00,,,0.23,Wunderground v.1.15,2013-05-03 04:21:00,
2013-05-02 23:26:00,34.4,25.6,30.41,NNW,346,3.0,8.0,70,0.00,,,0.23,Wunderground v.1.15,2013-05-03 04:26:00,
2013-05-02 23:31:00,34.4,25.6,30.41,NNW,338,3.0,7.0,70,0.00,,,0.23,Wunderground v.1.15,2013-05-03 04:31:00,
2013-05-02 23:37:00,34.3,25.9,30.41,NNW,342,3.0,7.0,71,0.00,,,0.23,Wunderground v.1.15,2013-05-03 04:37:00,
2013-05-02 23:42:00,34.0,25.6,30.42,NNW,341,3.0,6.0,71,0.00,,,0.23,Wunderground v.1.15,2013-05-03 04:42:00,
2013-05-02 23:47:00,33.8,25.7,30.41,NNW,346,4.0,7.0,72,0.00,,,0.23,Wunderground v.1.15,2013-05-03 04:47:00,
2013-05-02 23:52:00,33.6,25.5,30.41,North,350,0.0,5.0,72,0.00,,,0.23,Wunderground v.1.15,2013-05-03 04:52:00,
2013-05-02 23:57:00,33.4,25.7,30.40,NNW,348,4.0,8.0,73,0.00,,,0.23,Wunderground v.1.15,2013-05-03 04:57:00,